Hourly Data Report for September 05, 2017

All times are specified in Local Standard Time (LST). Add 1 hour to adjust for Daylight Saving Time where and when it is observed.

QIKIQTARJUAQ A
NUNAVUT

67°32'48.000" N
64°01'54.000" W
5.50 m
2400577
YVM

Download Data

Hourly Data (September 2017)
Hourly Data Report for September 5, 2017
Temp Definition
°C
Dew Point Temp Definition
°C
Rel Hum Definition
%
Wind Dir Definition
10's deg

Wind Spd Definition
km/h
Visibility Definition
km
Stn Press Definition
kPa
Hmdx Definition


Wind Chill Definition


Weather Definition


TIME
00:00 Legend Double Dagger 2.2 -2.4 72 13 8 16.1 101.22     LegendNANA
01:00 Legend Double Dagger 2.0 -2.6 72 13 11 16.1 101.20     LegendNANA
02:00 Legend Double Dagger 1.9 -2.5 73 14 11 16.1 101.21     LegendNANA
03:00 Legend Double Dagger 1.9 -2.6 72 14 4 16.1 101.20     LegendNANA
04:00 Legend Double Dagger 2.0 -2.6 72 12 5 16.1 101.19     LegendNANA
05:00 Legend Double Dagger 2.0 -2.5 72   0 16.1 101.20     LegendNANA
06:00 Legend Double Dagger 2.0 -1.7 77 35 5 16.1 101.18     LegendNANA
07:00 Legend Double Dagger 2.2 -1.6 76   0 16.1 101.16     LegendNANA
08:00 Legend Double Dagger 2.4 -3.4 66 LegendMM 5 16.1 101.13     LegendNANA
09:00 Legend Double Dagger 2.5 -3.4 65 24 5 16.1 101.12     LegendNANA
10:00 Legend Double Dagger 2.7 -3.2 65 36 5 16.1 101.06     LegendNANA
11:00 Legend Double Dagger 2.8 -3.2 65 35 5 16.1 101.02     LegendNANA
12:00 Legend Double Dagger 2.9 -3.1 65 4 9 16.1 101.00     LegendNANA
13:00 Legend Double Dagger 3.0 -3.0 65 6 13 16.1 100.99     LegendNANA
14:00 Legend Double Dagger 3.0 -3.2 64 14 8 16.1 100.97     LegendNANA
15:00 Legend Double Dagger 2.8 -2.4 69 32 8 16.1 100.95     LegendNANA
16:00 Legend Double Dagger 2.9 -2.5 68 27 5 16.1 100.94     LegendNANA
17:00 Legend Double Dagger 2.6 -2.9 67 25 5 16.1 100.93     LegendNANA
18:00 Legend Double Dagger 2.3 -3.1 68 5 8 16.1 100.92     LegendNANA
19:00 Legend Double Dagger 2.1 -2.7 71 7 5 16.1 100.91     LegendNANA
20:00 Legend Double Dagger 2.2 -2.5 71 26 4 16.1 100.87     LegendNANA
21:00 Legend Double Dagger 2.0 -2.0 75 24 4 16.1 100.84     LegendNANA
22:00 Legend Double Dagger 1.8 -1.5 79   0 16.1 100.82     LegendNANA
23:00 Legend Double Dagger 1.8 -1.4 80 LegendMM 4 16.1 100.80     LegendNANA

Notes on Data Quality.

Legend

  • E = Estimated
  • M = Missing
  • NA = Not Available
  • ‡ = Partner data that is not subject to review by the National Climate Archives
Date modified: